Regional Weather Roundup
Issued by NWS

Home | Current Version | Previous Version | Text Only | Print | Product List | Glossary Off
Versions: 1 2 3 4 5 6 7 8 9 10 11 12 13 14 15 16 17 18 19 20 21 22 23 24 25 26 27 28 29 30 31 32 33 34 35 36 37 38 39 40 41 42 43 44 45 46 47 48 49 50

000
ASUS45 KTFX 281604
RWRMT
MONTANA HOURLY WEATHER ROUNDUP
NATIONAL WEATHER SERVICE GREAT FALLS MT
904 AM MST FRI NOV 28 2014

NOTE: "FAIR" INDICATES FEW OR NO CLOUDS BELOW 12000 FEET WITH NO
SIGNIFICANT WEATHER AND/OR OBSTRUCTIONS TO VISIBILITY.

* THESE STATIONS ARE NOT UNDER NWS QUALITY CONTROL. THEY DO NOT
   REPORT WEATHER SUCH AS PRECIPITATION OR FOG.

MTZ001>007-043-281700-
WEST OF THE DIVIDE
CITY           SKY/WX    TMP DP  RH WIND       PRES   REMARKS
KALISPELL      CLOUDY    45  39  80 S13       29.50F
MISSOULA       PTSUNNY   43  39  86 S14       29.65F
BUTTE          CLOUDY    43  30  60 S20G26    29.74S
MULLAN PASS    FOG       36  36 100 SW14G31   29.57S VSB 1/2  WCI  27
* ESSEX        N/A       37  36  96 NE1G6      N/A
* LINCOLN      N/A       38  36  93 NE1G7      N/A
* LOOKOUT PASS N/A       42  38  86 SE11G24    N/A
* POLSON       N/A       41  37  86 S3G8       N/A
* RONAN APT    PTCLDY    46  37  71 SE15G21    N/A
* SEELEY LAKE  N/A       42  35  76 S6G15      N/A
* THOMP F APT  CLOUDY    33  24  70 NE5G10     N/A   WCI  28
* YAAK HILL    N/A       46  40  80 S2G13      N/A
$$

MTZ008-052>055-281700-
SOUTHWEST MONTANA
CITY           SKY/WX    TMP DP  RH WIND       PRES   REMARKS
BOZEMAN        CLOUDY    48  27  44 SW8       29.68F
DILLON         CLOUDY    45  25  45 SE12      29.74F
* W YELLOWSTON CLOUDY    37  23  57 SW4G14     N/A
* ENNIS APT    CLOUDY    46  25  44 S18G23     N/A
* THREE FORKS  CLOUDY    50  50 100 N/A        N/A
* BOULDER HILL N/A       43  24  47 S19G30     N/A
* MONIDA PASS  N/A       30  25  82 SE16G22    N/A   WCI  19
* RAYNOLDS PAS N/A       39  29  67 SW9G15     N/A   WCI  33
* WHITEHALL    N/A       50  27  41 SW12G31    N/A
* WISE RIVER   N/A       38  33  82 NW12G21    N/A   WCI  30
$$

MTZ009>010-012-014-046-048-049-054-281700-
EAST SLOPES AND CENTRAL MONTANA
CITY           SKY/WX    TMP DP  RH WIND       PRES   REMARKS
CUT BANK       PTCLDY    46  36  68 SW29G41   29.39F
GREAT FALLS    PTCLDY    52  34  50 SW28G43   29.48F
HELENA         CLOUDY    45  34  65 W3        29.64F
MALMSTROM AFB  PTCLDY    52  34  50 SW32G39   29.50F
* DEARBORN     N/A       52  33  48 S12G26     N/A
* EAST GLACIER N/A       38  35  89 W15G22     N/A   WCI  29
* MONARCH      N/A       45  22  40 SW26G35    N/A
* PENDROY      N/A       42  37  83 SW20G26    N/A
* ROGERS PASS  N/A       38  34  86 E7G14      N/A   WCI  33
* SAINT MARY   N/A       39  35  86 S6G17      N/A   WCI  35
* SWEET GRASS  N/A       16  16 100 N13        N/A   WCI   2
$$

MTZ011-013-016-021-035-040-045-047-050-051-281700-
NORTH CENTRAL MONTANA
CITY           SKY/WX    TMP DP  RH WIND       PRES   REMARKS
HAVRE          SUNNY     30  27  89 SW9       29.44F WCI  22
LEWISTOWN      PTCLDY    54  28  37 SW28G35   29.54F
* N BAR RANCH  SUNNY     54  27  35 SW12      29.56S
* CHESTER      N/A       33  31  92 NE2G9      N/A
* DENTON       N/A       49  31  50 SW20G30    N/A
* GEYSER       N/A       50  26  39 SW24G32    N/A
* JUDITH GAP   N/A       47  25  42 SW20G26    N/A
* LOMA         N/A       49  35  59 SW2G8      N/A
$$

MTZ017>020-022>027-061-062-281700-
NORTHEAST MONTANA
CITY           SKY/WX    TMP DP  RH WIND       PRES   REMARKS
GLASGOW        FOG       18  16  92 SE15      29.54F VSB 2    WCI   4
GLENDIVE       CLOUDY    23  21  92 CALM      29.60S
JORDAN         CLOUDY    34  30  85 CALM      29.52F
SIDNEY         PTSUNNY   21  18  88 CALM      29.63S
WOLF POINT     FOG       19  16  88 E10       29.59F WCI   8
* BEAVER HILL  N/A       41  32  70 S14        N/A
* CIRCLE       N/A       23  21  92 NE4        N/A
* LINDSAY DVD  N/A       46  35  66 SW8        N/A
* NAVAJO       N/A       12  10  92 SE7        N/A   WCI   1
* SACO         N/A       19  17  92 E11        N/A   WCI   7
$$

MTZ028>042-056>058-281700-
SOUTHCENTRAL AND SOUTHEAST MONTANA
CITY           SKY/WX    TMP DP  RH WIND       PRES   REMARKS
BAKER          CLOUDY    45  30  56 SW12      29.61F
BILLINGS       CLOUDY    48  27  44 SW13      29.63S
LIVINGSTON     CLOUDY    54  25  33 SW29G37   29.64R
MILES CITY     CLOUDY    37  32  82 SE10      29.58F WCI  30
* LAUREL APT   PTSUNNY   45  21  38 N/A        N/A
* ALZADA       N/A       46  31  56 E3         N/A
* HYSHAM       N/A       52  22  31 W9         N/A
* LAME DEER    N/A       49  26  41 SW10       N/A
* REED POINT   N/A       55  28  35 W15        N/A
* ROSCOE HILL  N/A       47  17  30 SW19G38    N/A
$$

REGIONAL REPORTS...DAKOTAS
CITY           SKY/WX    TMP DP  RH WIND       PRES   REMARKS
WILLISTON      CLOUDY    16  12  84 E10       29.65F WCI   4
DICKINSON      CLOUDY    19  16  88 E9        29.61F WCI   8
BEACH          SUNNY     41  32  70 SW12      29.59F
CROSBY         LGT SNOW   9   7  91 E13       29.68F WCI  -7
BISMARCK       PTSUNNY   12   9  88 E9        29.78S
GRAND FORKS    LGT SNOW  12   9  88 E7        29.94F VSB 1 1/2 WCI   1
FARGO          CLOUDY    16   7  67 SE10      29.93S WCI   4
BUFFALO SD     PTSUNNY   41  30  65 SE3       29.57F
RAPID CITY     PTCLDY    43  30  60 CALM      29.70F
$$

REGIONAL REPORTS...WYOMING/IDAHO/WASHINGTON
CITY           SKY/WX    TMP DP  RH WIND       PRES   REMARKS
GILLETTE       PTSUNNY   48  27  44 SW20G25   29.70F
SHERIDAN       CLOUDY    55  21  27 NW16G26   29.66S
CODY           PTCLDY    55  18  23 W21G32    29.73R
YELLOWSTONE LA CLOUDY    37  19  48 W8        29.90F WCI  31
SALMON         PTSUNNY   43  32  65 N7        29.77S
MULLAN PASS    FOG       36  36 100 SW14G31   29.57S VSB 1/2  WCI  27
SAND POINT     CLOUDY    50  41  71 SW9G18    29.50F
SPOKANE        PTSUNNY   48  43  83 SW23G29   29.52F
$$

REGIONAL REPORTS...ALBERTA
CITY           SKY/WX    TMP DP  RH WIND       PRES   REMARKS
EDMONTON       LGT SNOW  -8 -15  71 NW13      29.80R VSB 1 1/4 WCI -28

$$



USA.gov is the U.S. government's official web portal to all federal, state and local government web resources and services.